Location: L�Adrech
(44.2500°N, 6.4167°E)
Time: 20:53:11
(UTC+00:00)

Timation 1 Rocket - Pass Details

Date: 07 June 2020
Orbit: 900 x 907 km, 70.0° (Epoch: 04 July)

Event Time Altitude Azimuth Distance (km) Brightness Sun altitude
Rises 01:04:42 0° 330° (NNW) 3,533 8.0 -19.8°
Reaches altitude 10° 01:07:13 10° 328° (NNW) 2,587 7.2 -19.6°
Maximum altitude 01:13:07 65° 248° (WSW) 985 4.3 -19.2°
Enters shadow 01:16:18 28° 175° (S) 1,623 5.2 -18.9°
